Wind_Speed
14 13 12 12 12 12 12 12 13 12 12 14 14 16 18 19 21 22 23 25 25 26 27 28 29 30 30 30 30 31 31 29 29 29 30 30 28 26 25 22 20 19 19 19
14 12 11 12 11 12 13 13 11 11 12 16 17 18 19 21 22 23 24 25 26 27 28 28 29 30 30 30 30 31 31 31 31 31 31 30 30 28 25 23 20 20 19 20
14 13 12 10 10 11 13 13 12 12 13 17 19 21 21 23 23 24 24 24 25 25 25 27 28 28 30 30 31 31 31 31 32 32 31 31 29 28 27 25 22 21 21 21
14 15 13 11 11 11 12 12 12 13 14 16 19 20 20 23 24 24 24 24 23 23 24 25 27 28 29 30 30 30 31 31 32 32 32 31 29 28 26 25 24 22 21 20
13 15 14 12 10 10 11 12 12 14 15 16 18 20 20 23 23 23 23 23 24 24 24 25 26 27 28 30 31 31 31 31 31 31 31 31 30 29 28 26 25 25 24 23
13 14 13 11 9 10 11 12 13 13 14 16 17 20 20 21 22 22 22 22 23 24 24 24 24 25 27 28 29 30 30 31 30 31 31 31 30 29 27 26 26 26 25 24
13 13 12 10 9 10 11 12 12 12 12 13 15 18 19 18 19 20 21 21 21 21 22 23 24 24 25 26 27 28 29 30 30 31 30 30 30 29 29 28 27 26 26 26
13 12 12 12 10 10 10 11 12 13 13 12 13 17 17 17 17 17 17 17 18 19 19 20 21 23 23 23 24 26 27 28 28 29 29 29 29 28 28 28 28 27 26 26
13 13 12 12 11 11 11 11 11 12 12 13 15 16 17 17 16 15 16 16 18 19 18 18 19 20 21 22 23 24 25 26 27 28 28 29 29 28 28 28 28 28 27 26
13 13 12 12 11 11 11 11 12 12 14 15 15 17 17 15 15 16 17 17 18 18 19 19 19 20 20 21 21 21 22 23 24 25 26 26 27 28 28 28 28 27 27 26
14 14 12 11 12 13 14 14 13 15 15 15 16 16 17 18 18 18 17 17 17 18 18 18 18 18 19 19 19 20 20 22 22 22 23 24 25 26 27 28 27 27 27 27
15 13 12 11 12 14 15 15 15 15 15 15 16 17 18 18 18 18 18 17 17 17 17 18 17 18 18 18 19 19 20 20 21 22 22 23 24 24 25 26 26 26 26 26
14 13 11 11 12 13 13 13 14 16 15 16 16 17 18 18 18 17 18 17 17 17 17 17 16 16 17 18 19 19 19 20 20 21 22 22 22 22 22 23 23 23 23 23
13 13 12 12 12 11 11 12 14 14 14 15 16 17 18 18 18 18 18 17 17 16 16 17 16 16 17 17 18 19 19 19 19 19 20 20 21 21 21 21 23 22 22 23
13 12 11 11 11 11 11 12 13 14 15 15 16 17 17 17 18 18 18 17 17 16 17 17 16 16 16 17 17 18 18 18 17 17 18 18 18 18 19 20 20 21 21 21
12 12 11 11 12 12 11 11 12 13 15 15 16 17 17 17 18 18 18 18 17 17 18 17 17 17 17 17 17 16 16 16 15 15 15 15 16 17 17 17 18 18 19 20
11 11 10 10 12 12 12 10 10 12 13 14 15 15 15 17 18 18 18 17 17 17 17 16 16 16 17 16 15 14 13 13 12 13 13 14 13 13 14 15 15 17 17 18
11 11 11 11 11 12 11 10 11 12 12 14 14 14 15 16 17 17 17 17 17 16 15 14 14 14 14 14 13 11 11 11 11 11 11 11 12 12 13 13 14 14 15 16
10 10 10 10 10 10 10 12 12 11 11 12 13 14 14 15 16 16 16 16 16 15 13 12 12 12 12 11 10 9 9 10 9 10 10 10 11 10 10 11 12 13 13 14
9 10 9 8 9 9 9 11 11 10 10 11 13 14 14 15 15 15 16 15 14 13 12 11 10 10 9 8 8 8 8 9 9 9 9 9 9 8 9 9 9 10 10 11
10 9 8 7 7 6 8 9 9 10 11 12 13 14 14 14 14 15 15 14 13 11 10 9 9 8 7 6 6 6 7 7 7 7 7 7 8 8 8 9 9 9 9 10
11 9 7 6 6 5 6 6 7 9 10 11 12 13 13 14 14 14 14 13 12 9 8 7 7 6 6 5 5 5 5 5 4 4 5 6 6 7 7 7 8 8 9 8
10 8 7 5 4 4 5 5 7 8 9 11 12 13 13 13 14 14 13 12 10 8 6 5 5 4 3 3 3 2 2 2 2 2 3 3 3 4 4 5 5 6 6 6
8 7 6 4 2 3 4 5 5 7 9 11 12 13 13 13 13 12 11 10 8 7 5 4 4 3 2 2 2 2 1 1 0 0 0 1 1 2 3 3 3 3 4 4
7 6 5 3 2 1 2 3 5 7 9 11 12 13 13 13 12 11 10 10 8 6 5 5 5 4 3 3 3 4 4 4 3 3 3 3 3 3 3 3 2 2 2 3
7 5 4 2 1 1 1 3 5 7 9 10 11 12 13 13 12 11 11 10 9 9 8 7 7 6 6 6 6 5 6 6 5 5 4 5 5 5 5 5 5 4 4 3
Wind_Direction
218 217 217 218 220 220 227 236 239 239 246 253 261 267 269 271 273 274 272 269 268 264 263 263 263 263 264 264 265 263 262 261 263 265 266 267 261 262 262 260 263 265 264 265
216 210 209 214 221 227 238 244 245 243 248 251 256 262 267 269 271 272 272 269 267 268 268 268 265 265 265 264 263 264 263 263 264 266 267 268 269 267 266 271 274 271 266 269
216 211 210 214 223 234 242 249 252 246 242 248 254 259 264 268 272 273 273 272 269 268 270 270 268 266 266 265 264 264 264 263 264 265 265 267 267 268 270 273 277 274 269 270
213 212 210 213 220 233 245 252 254 250 246 246 251 260 266 271 273 273 273 272 273 268 269 269 269 269 267 266 265 266 267 264 263 263 264 265 266 267 268 270 272 274 274 273
212 210 211 216 225 239 251 257 258 257 256 256 260 266 267 270 275 277 275 274 277 272 268 270 269 267 267 267 267 267 268 266 265 264 264 265 264 266 266 268 269 272 275 277
212 211 213 218 227 241 253 260 259 262 265 266 268 271 274 274 277 277 276 278 277 275 272 270 268 268 267 268 268 268 267 266 266 265 264 264 263 264 265 266 267 269 271 272
208 215 223 227 229 234 250 259 265 269 272 276 277 278 283 282 280 282 281 279 276 275 273 270 270 271 271 270 269 268 266 265 264 264 264 264 263 262 263 265 266 267 268 268
211 217 233 239 238 240 252 261 270 280 282 286 285 290 291 291 292 289 286 282 279 279 277 275 273 273 273 273 272 269 266 263 263 263 263 263 262 262 262 263 264 266 267 268
220 223 232 236 240 248 257 259 269 279 284 289 293 296 300 297 299 299 296 291 289 286 282 281 278 276 275 275 274 271 267 265 265 264 264 263 261 260 260 261 263 265 266 266
224 229 234 239 247 251 254 255 263 272 284 292 298 304 306 303 308 308 303 297 295 291 288 287 281 277 277 276 275 273 268 266 265 263 263 262 261 260 260 262 265 266 266 264
225 235 238 245 252 256 254 259 268 273 280 292 302 308 311 307 308 308 305 303 299 295 290 287 283 280 279 276 274 271 269 266 265 264 263 261 260 260 260 263 265 265 266 265
230 236 240 245 254 256 259 261 268 274 281 290 298 305 311 309 307 306 306 304 304 298 293 293 291 283 277 275 273 272 271 268 266 264 263 262 260 261 261 262 263 263 264 262
234 240 245 249 256 259 255 259 269 276 281 288 297 304 308 309 309 308 306 307 308 302 298 297 294 287 279 277 274 272 271 271 269 265 264 263 262 261 262 261 261 261 261 262
237 241 248 250 255 255 251 255 266 275 285 292 300 305 307 308 310 313 310 308 307 302 299 298 295 289 283 280 276 272 271 273 270 265 263 263 262 261 261 261 260 259 260 261
240 244 248 252 255 255 254 259 270 281 289 294 302 303 306 309 311 311 311 309 307 302 301 298 293 290 286 283 279 274 270 271 270 265 262 261 261 261 262 262 258 257 259 260
240 247 250 254 254 255 258 266 275 284 295 297 300 304 307 309 310 311 311 309 306 305 302 295 289 289 289 286 282 275 271 270 268 263 263 261 260 262 262 261 260 261 261 263
239 248 251 253 258 262 270 273 277 286 295 300 305 308 309 309 310 311 310 308 307 304 301 295 290 287 285 283 281 275 273 273 270 264 262 259 261 260 260 261 263 263 262 262
237 247 251 250 262 273 273 280 286 293 300 304 307 309 309 310 311 312 312 310 310 307 303 298 293 288 286 283 278 276 269 268 267 266 265 261 264 262 264 264 264 263 261 261
234 239 245 251 262 271 278 285 293 296 303 311 314 316 314 313 315 316 315 313 312 310 307 301 294 289 286 283 283 275 265 264 263 265 268 272 269 265 265 265 265 266 264 263
223 233 242 254 267 274 287 294 296 305 312 320 319 320 322 321 321 321 319 318 316 314 310 301 297 299 293 286 280 272 265 261 266 271 270 271 270 271 269 269 270 267 267 268
215 225 238 254 271 287 293 306 313 318 323 325 326 327 329 329 326 325 324 324 324 320 312 303 302 301 295 289 280 275 275 273 274 270 266 269 272 272 270 270 269 270 273 273
215 225 242 260 271 288 302 317 320 323 328 333 335 336 336 336 333 332 332 330 328 324 315 307 305 301 296 289 287 286 280 276 270 269 270 274 276 275 271 269 270 272 276 276
222 236 249 260 283 289 307 318 321 330 338 344 345 344 343 342 341 340 339 339 337 332 328 326 325 319 315 309 305 298 282 273 270 264 270 277 281 285 284 280 277 277 278 280
227 240 243 249 271 293 307 318 333 344 350 352 353 353 352 352 351 350 353 355 354 352 356 1 6 12 9 22 28 25 36 60 66 190 343 11 352 335 323 312 303 296 295 296
232 230 238 240 238 293 329 351 354 356 356 359 2 2 2 2 1 3 9 13 16 23 35 43 48 55 64 69 74 73 75 84 92 101 95 63 38 25 18 13 7 352 337 333
223 228 218 189 166 207 3 1 6 3 3 7 11 12 12 13 14 18 23 30 37 46 55 63 69 75 78 80 79 84 84 87 92 94 86 73 61 58 57 54 53 52 49 38
Height
5802 5805 5806 5808 5809 5810 5810 5811 5812 5813 5812 5812 5812 5812 5812 5813 5813 5813 5813 5813 5813 5813 5813 5814 5814 5814 5814 5815 5815 5815 5816 5817 5818 5819 5819 5819 5819 5819 5820 5820 5821 5822 5822 5823
5799 5802 5803 5803 5805 5806 5807 5808 5808 5809 5809 5809 5808 5808 5809 5808 5808 5808 5807 5807 5807 5807 5807 5807 5808 5808 5808 5809 5809 5809 5810 5810 5811 5812 5813 5814 5814 5814 5814 5815 5816 5817 5818 5818
5796 5799 5799 5800 5801 5803 5804 5804 5805 5805 5806 5805 5805 5805 5805 5803 5803 5802 5802 5801 5801 5801 5801 5801 5801 5801 5801 5801 5801 5802 5803 5804 5805 5806 5807 5808 5808 5808 5808 5810 5811 5812 5812 5813
5793 5794 5795 5797 5798 5799 5800 5801 5801 5802 5802 5802 5802 5801 5801 5798 5797 5796 5796 5795 5795 5796 5796 5795 5795 5794 5794 5794 5794 5794 5796 5797 5798 5799 5800 5802 5802 5803 5803 5804 5806 5807 5807 5807
5790 5791 5792 5794 5795 5796 5797 5797 5798 5798 5798 5798 5798 5797 5797 5794 5792 5791 5790 5790 5789 5789 5789 5789 5788 5788 5788 5788 5788 5789 5789 5790 5791 5792 5794 5795 5796 5796 5797 5799 5800 5801 5802 5802
5788 5789 5789 5791 5792 5793 5794 5795 5794 5794 5794 5795 5794 5793 5791 5789 5787 5786 5785 5784 5784 5783 5783 5782 5781 5781 5781 5781 5781 5781 5782 5783 5784 5786 5787 5788 5789 5790 5791 5793 5794 5795 5796 5796
5785 5787 5787 5788 5788 5790 5791 5791 5792 5791 5791 5790 5789 5787 5786 5784 5783 5782 5780 5779 5777 5776 5776 5776 5775 5775 5775 5775 5775 5774 5775 5776 5777 5779 5780 5781 5782 5784 5785 5786 5787 5788 5789 5790
5782 5785 5785 5785 5786 5786 5787 5788 5789 5788 5787 5786 5785 5782 5782 5780 5778 5776 5775 5773 5772 5772 5771 5770 5769 5769 5769 5768 5767 5768 5768 5769 5770 5771 5773 5774 5775 5777 5778 5779 5780 5782 5782 5783
5779 5782 5782 5783 5783 5784 5784 5784 5785 5785 5783 5782 5781 5779 5777 5775 5774 5773 5771 5769 5768 5767 5766 5765 5764 5764 5763 5762 5761 5761 5762 5763 5763 5765 5766 5767 5768 5770 5771 5772 5773 5774 5775 5776
5776 5778 5779 5780 5781 5781 5782 5781 5781 5781 5780 5779 5778 5776 5775 5772 5770 5769 5767 5766 5764 5762 5761 5760 5759 5758 5757 5757 5756 5755 5755 5756 5757 5758 5759 5760 5761 5762 5764 5765 5766 5767 5768 5769
5773 5775 5777 5778 5778 5778 5778 5779 5778 5777 5777 5775 5774 5775 5771 5769 5767 5765 5763 5761 5759 5758 5756 5755 5754 5752 5751 5751 5750 5750 5750 5750 5751 5751 5752 5753 5754 5755 5757 5758 5759 5760 5761 5761
5770 5772 5773 5775 5775 5775 5775 5775 5775 5775 5773 5772 5770 5772 5767 5765 5762 5760 5758 5756 5754 5753 5751 5750 5748 5747 5746 5745 5745 5744 5744 5744 5744 5745 5746 5747 5748 5749 5750 5751 5752 5752 5753 5754
5768 5769 5771 5772 5773 5772 5771 5772 5771 5771 5769 5768 5767 5768 5763 5760 5758 5756 5754 5752 5750 5748 5746 5744 5743 5741 5740 5740 5739 5738 5738 5738 5738 5738 5739 5740 5741 5742 5743 5744 5745 5745 5746 5747
5765 5767 5769 5769 5769 5768 5768 5769 5768 5767 5766 5765 5764 5762 5759 5756 5754 5751 5749 5747 5745 5743 5741 5740 5738 5737 5735 5734 5733 5733 5732 5732 5732 5732 5732 5733 5734 5735 5736 5737 5738 5738 5739 5740
5763 5764 5765 5765 5765 5765 5765 5765 5764 5763 5762 5761 5760 5757 5755 5753 5750 5748 5745 5743 5741 5739 5737 5735 5733 5731 5730 5729 5727 5727 5727 5726 5726 5726 5726 5727 5728 5728 5729 5730 5731 5732 5732 5733
5760 5761 5762 5763 5763 5763 5762 5762 5761 5760 5758 5757 5755 5753 5751 5748 5746 5743 5741 5738 5736 5734 5731 5729 5728 5726 5725 5723 5722 5721 5721 5721 5721 5721 5721 5722 5722 5723 5724 5724 5725 5725 5726 5726
5757 5759 5759 5760 5760 5760 5760 5759 5758 5757 5755 5753 5751 5749 5746 5744 5741 5739 5736 5733 5731 5729 5726 5724 5722 5721 5719 5718 5717 5716 5716 5716 5716 5716 5717 5717 5717 5718 5718 5719 5719 5720 5720 5720
5755 5756 5757 5757 5758 5757 5759 5755 5754 5753 5752 5750 5747 5745 5742 5740 5737 5734 5731 5729 5726 5724 5721 5719 5717 5716 5715 5714 5713 5712 5712 5712 5713 5713 5713 5713 5713 5714 5714 5714 5714 5714 5715 5715
5753 5754 5754 5755 5754 5754 5754 5752 5751 5750 5749 5747 5744 5741 5738 5735 5733 5730 5727 5724 5721 5719 5716 5714 5713 5712 5710 5709 5709 5709 5709 5709 5709 5709 5709 5709 5709 5710 5710 5710 5710 5710 5710 5710
5750 5751 5752 5752 5751 5751 5752 5750 5748 5747 5745 5743 5740 5738 5735 5732 5729 5727 5723 5719 5717 5714 5712 5710 5709 5708 5707 5706 5706 5706 5706 5706 5706 5706 5706 5706 5706 5706 5706 5706 5706 5706 5706 5706
5748 5749 5749 5749 5748 5748 5748 5747 5746 5745 5744 5740 5737 5734 5731 5728 5726 5723 5719 5716 5713 5711 5709 5707 5706 5705 5704 5703 5703 5703 5703 5703 5703 5703 5703 5703 5703 5703 5703 5703 5703 5703 5702 5702
5745 5745 5746 5746 5746 5748 5745 5744 5744 5743 5740 5737 5734 5731 5728 5725 5722 5719 5716 5712 5710 5708 5706 5705 5703 5702 5702 5701 5701 5700 5700 5700 5700 5700 5700 5700 5700 5700 5700 5700 5700 5700 5699 5699
5742 5743 5743 5744 5746 5744 5743 5742 5741 5740 5737 5735 5732 5729 5726 5722 5719 5716 5713 5710 5707 5705 5704 5702 5701 5700 5700 5699 5699 5699 5699 5698 5698 5698 5698 5698 5698 5698 5698 5697 5697 5697 5697 5697
5740 5741 5741 5742 5742 5742 5741 5740 5739 5738 5735 5733 5730 5727 5724 5720 5717 5714 5711 5708 5706 5704 5702 5701 5700 5699 5699 5698 5698 5698 5697 5697 5697 5697 5697 5697 5697 5697 5696 5696 5696 5696 5695 5695
5738 5739 5739 5739 5740 5740 5739 5738 5737 5736 5734 5732 5729 5726 5722 5719 5716 5713 5710 5707 5705 5703 5702 5701 5700 5699 5699 5698 5698 5698 5697 5697 5697 5697 5697 5697 5697 5696 5696 5695 5695 5695 5694 5694
5737 5738 5738 5738 5738 5738 5738 5737 5736 5734 5733 5731 5728 5725 5722 5719 5716 5713 5710 5708 5706 5704 5703 5701 5701 5700 5699 5699 5699 5698 5698 5698 5698 5698 5698 5698 5698 5697 5696 5696 5695 5694 5694 5694